Find Starlink 32832

NORAD ID: 63040 Int'l Des: 2025-034 Owner: SPXS Country: US Constellation: starlink operational
LEOCIRCULAR

当前视图

正在加载3D地球...

About Starlink 32832

Starlink 32832 (NORAD 63040) is a starlink constellation satellite (v2 mini) launched Feb 18, 2025 by SPXS of US. It operates in LEO, CIRCULAR orbit with a mass of 730.00 kg.

关于 Starlink 32832

正在加载描述...

即将过境

Passes for default location (London). Set your location on the main map for personalized predictions.

高度历史

Loading altitude history...

两行轨道根数

1 63040U 25034M 26194.77901007 .00012173 00000-0 40321-3 0 9997
2 63040 53.1594 31.6000 0001329 96.5380 263.5773 15.31714990 78400
Epoch: Jul 13, 2026 • Age: 14 hours

当前状态

高度 472.1 km
远地点 / 近地点 N/A
速度 7.63 km/s
星下点 -2.74°S, 37.04°W
发射日期 Feb 18, 2025
运行时间 1.3 years
类型 internet

技术详情

分类 Payload
质量 730.00 kg
干质量 700.00 kg
总质量 730.00 kg
长度 0.30 m
直径 4.10 m
跨度 29.00 m
形状 Box + pan
制造商 SPXS
平台类型 Starlink V2M
阶段状态 In Orbit
所有者/国家 SPXS/US

Most Searched